Location: Brienzwiler
(46.7508°N, 8.1014°E)
Time: 07:14:38
(UTC+00:00)

Resurs 1-4 Rocket - Pass Details

Date: 05 July 2020
Orbit: 800 x 814 km, 98.6° (Epoch: 05 August)

Event Time Altitude Azimuth Distance (km) Brightness Sun altitude
Rises 23:39:41 0° 30° (NNE) 3,349 6.4 -20.6°
Reaches altitude 10° 23:43:10 10° 54° (NE) 2,409 5.1 -20.5°
Maximum altitude 23:46:06 15° 88° (E) 2,078 4.3 -20.5°
Enters shadow 23:48:45 11° 119° (ESE) 2,339 4.3 -20.5°
